Year,Month,Day,Hour,Minute,Value (Times are PST for insolation in W/m^2)
2013,03,08,00,00,0.00
2013,03,08,00,01,0.00
2013,03,08,00,02,0.00
2013,03,08,00,03,0.00
2013,03,08,00,04,0.00
2013,03,08,00,05,0.00
2013,03,08,00,06,0.00
2013,03,08,00,07,0.00
2013,03,08,00,08,0.00
2013,03,08,00,09,0.00
2013,03,08,00,10,0.00
2013,03,08,00,11,0.00
2013,03,08,00,12,0.00
2013,03,08,00,13,0.00
2013,03,08,00,14,0.00
2013,03,08,00,15,0.00
2013,03,08,00,16,0.00
2013,03,08,00,17,0.00
2013,03,08,00,18,0.00
2013,03,08,00,19,0.00
2013,03,08,00,20,0.00
2013,03,08,00,21,0.00
2013,03,08,00,22,0.00
2013,03,08,00,23,0.00
2013,03,08,00,24,0.00
2013,03,08,00,25,0.00
2013,03,08,00,26,0.00
2013,03,08,00,27,0.00
2013,03,08,00,28,0.00
2013,03,08,00,29,0.00
2013,03,08,00,30,0.00
2013,03,08,00,31,0.00
2013,03,08,00,32,0.00
2013,03,08,00,33,0.00
2013,03,08,00,34,0.00
2013,03,08,00,35,0.00
2013,03,08,00,36,0.00
2013,03,08,00,37,0.00
2013,03,08,00,38,0.00
2013,03,08,00,39,0.00
2013,03,08,00,40,0.00
2013,03,08,00,41,0.00
2013,03,08,00,42,0.00
2013,03,08,00,43,0.00
2013,03,08,00,44,0.00
2013,03,08,00,45,0.00
2013,03,08,00,46,0.00
2013,03,08,00,47,0.00
2013,03,08,00,48,0.00
2013,03,08,00,49,0.00
2013,03,08,00,50,0.00
2013,03,08,00,51,0.00
2013,03,08,00,52,0.00
2013,03,08,00,53,0.00
2013,03,08,00,54,0.00
2013,03,08,00,55,0.00
2013,03,08,00,56,0.00
2013,03,08,00,57,0.00
2013,03,08,00,58,0.00
2013,03,08,00,59,0.00
2013,03,08,01,00,0.00
2013,03,08,01,01,0.00
2013,03,08,01,02,0.00
2013,03,08,01,03,0.00
2013,03,08,01,04,0.00
2013,03,08,01,05,0.00
2013,03,08,01,06,0.00
2013,03,08,01,07,0.00
2013,03,08,01,08,0.00
2013,03,08,01,09,0.00
2013,03,08,01,10,0.00
2013,03,08,01,11,0.00
2013,03,08,01,12,0.00
2013,03,08,01,13,0.00
2013,03,08,01,14,0.00
2013,03,08,01,15,0.00
2013,03,08,01,16,0.00
2013,03,08,01,17,0.00
2013,03,08,01,18,0.00
2013,03,08,01,19,0.00
2013,03,08,01,20,0.00
2013,03,08,01,21,0.00
2013,03,08,01,22,0.00
2013,03,08,01,23,0.00
2013,03,08,01,24,0.00
2013,03,08,01,25,0.00
2013,03,08,01,26,0.00
2013,03,08,01,27,0.00
2013,03,08,01,28,0.00
2013,03,08,01,29,0.00
2013,03,08,01,30,0.00
2013,03,08,01,31,0.00
2013,03,08,01,32,0.00
2013,03,08,01,33,0.00
2013,03,08,01,34,0.00
2013,03,08,01,35,0.00
2013,03,08,01,36,0.00
2013,03,08,01,37,0.00
2013,03,08,01,38,0.00
2013,03,08,01,39,0.00
2013,03,08,01,40,0.00
2013,03,08,01,41,0.00
2013,03,08,01,42,0.00
2013,03,08,01,43,0.00
2013,03,08,01,44,0.00
2013,03,08,01,45,0.00
2013,03,08,01,46,0.00
2013,03,08,01,47,0.00
2013,03,08,01,48,0.00
2013,03,08,01,49,0.00
2013,03,08,01,50,0.00
2013,03,08,01,51,0.00
2013,03,08,01,52,0.00
2013,03,08,01,53,0.00
2013,03,08,01,54,0.00
2013,03,08,01,55,0.00
2013,03,08,01,56,0.00
2013,03,08,01,57,0.00
2013,03,08,01,58,0.00
2013,03,08,01,59,0.00
2013,03,08,02,00,0.00
2013,03,08,02,01,0.00
2013,03,08,02,02,0.00
2013,03,08,02,03,0.00
2013,03,08,02,04,0.00
2013,03,08,02,05,0.00
2013,03,08,02,06,0.00
2013,03,08,02,07,0.00
2013,03,08,02,08,0.00
2013,03,08,02,09,0.00
2013,03,08,02,10,0.00
2013,03,08,02,11,0.00
2013,03,08,02,12,0.00
2013,03,08,02,13,0.00
2013,03,08,02,14,0.00
2013,03,08,02,15,0.00
2013,03,08,02,16,0.00
2013,03,08,02,17,0.00
2013,03,08,02,18,0.00
2013,03,08,02,19,0.00
2013,03,08,02,20,0.00
2013,03,08,02,21,0.00
2013,03,08,02,22,0.00
2013,03,08,02,23,0.00
2013,03,08,02,24,0.00
2013,03,08,02,25,0.00
2013,03,08,02,26,0.00
2013,03,08,02,27,0.00
2013,03,08,02,28,0.00
2013,03,08,02,29,0.00
2013,03,08,02,30,0.00
2013,03,08,02,31,0.00
2013,03,08,02,32,0.00
2013,03,08,02,33,0.00
2013,03,08,02,34,0.00
2013,03,08,02,35,0.00
2013,03,08,02,36,0.00
2013,03,08,02,37,0.00
2013,03,08,02,38,0.00
2013,03,08,02,39,0.00
2013,03,08,02,40,0.00
2013,03,08,02,41,0.00
2013,03,08,02,42,0.00
2013,03,08,02,43,0.00
2013,03,08,02,44,0.00
2013,03,08,02,45,0.00
2013,03,08,02,46,0.00
2013,03,08,02,47,0.00
2013,03,08,02,48,0.00
2013,03,08,02,49,0.00
2013,03,08,02,50,0.00
2013,03,08,02,51,0.00
2013,03,08,02,52,0.00
2013,03,08,02,53,0.00
2013,03,08,02,54,0.00
2013,03,08,02,55,0.00
2013,03,08,02,56,0.00
2013,03,08,02,57,0.00
2013,03,08,02,58,0.00
2013,03,08,02,59,0.00
2013,03,08,03,00,0.00
2013,03,08,03,01,0.00
2013,03,08,03,02,0.00
2013,03,08,03,03,0.00
2013,03,08,03,04,0.00
2013,03,08,03,05,0.00
2013,03,08,03,06,0.00
2013,03,08,03,07,0.00
2013,03,08,03,08,0.00
2013,03,08,03,09,0.00
2013,03,08,03,10,0.00
2013,03,08,03,11,0.00
2013,03,08,03,12,0.00
2013,03,08,03,13,0.00
2013,03,08,03,14,0.00
2013,03,08,03,15,0.00
2013,03,08,03,16,0.00
2013,03,08,03,17,0.00
2013,03,08,03,18,0.00
2013,03,08,03,19,0.00
2013,03,08,03,20,0.00
2013,03,08,03,21,0.00
2013,03,08,03,22,0.00
2013,03,08,03,23,0.00
2013,03,08,03,24,0.00
2013,03,08,03,25,0.00
2013,03,08,03,26,0.00
2013,03,08,03,27,0.00
2013,03,08,03,28,0.00
2013,03,08,03,29,0.00
2013,03,08,03,30,0.00
2013,03,08,03,31,0.00
2013,03,08,03,32,0.00
2013,03,08,03,33,0.00
2013,03,08,03,34,0.00
2013,03,08,03,35,0.00
2013,03,08,03,36,0.00
2013,03,08,03,37,0.00
2013,03,08,03,38,0.00
2013,03,08,03,39,0.00
2013,03,08,03,40,0.00
2013,03,08,03,41,0.00
2013,03,08,03,42,0.00
2013,03,08,03,43,0.00
2013,03,08,03,44,0.00
2013,03,08,03,45,0.00
2013,03,08,03,46,0.00
2013,03,08,03,47,0.00
2013,03,08,03,48,0.00
2013,03,08,03,49,0.00
2013,03,08,03,50,0.00
2013,03,08,03,51,0.00
2013,03,08,03,52,0.00
2013,03,08,03,53,0.00
2013,03,08,03,54,0.00
2013,03,08,03,55,0.00
2013,03,08,03,56,0.00
2013,03,08,03,57,0.00
2013,03,08,03,58,0.00
2013,03,08,03,59,0.00
2013,03,08,04,00,0.00
2013,03,08,04,01,0.00
2013,03,08,04,02,0.00
2013,03,08,04,03,0.00
2013,03,08,04,04,0.00
2013,03,08,04,05,0.00
2013,03,08,04,06,0.00
2013,03,08,04,07,0.00
2013,03,08,04,08,0.00
2013,03,08,04,09,0.00
2013,03,08,04,10,0.00
2013,03,08,04,11,0.00
2013,03,08,04,12,0.00
2013,03,08,04,13,0.00
2013,03,08,04,14,0.00
2013,03,08,04,15,0.00
2013,03,08,04,16,0.00
2013,03,08,04,17,0.00
2013,03,08,04,18,0.00
2013,03,08,04,19,0.00
2013,03,08,04,20,0.00
2013,03,08,04,21,0.00
2013,03,08,04,22,0.00
2013,03,08,04,23,0.00
2013,03,08,04,24,0.00
2013,03,08,04,25,0.00
2013,03,08,04,26,0.00
2013,03,08,04,27,0.00
2013,03,08,04,28,0.00
2013,03,08,04,29,0.00
2013,03,08,04,30,0.00
2013,03,08,04,31,0.00
2013,03,08,04,32,0.00
2013,03,08,04,33,0.00
2013,03,08,04,34,0.00
2013,03,08,04,35,0.00
2013,03,08,04,36,0.00
2013,03,08,04,37,0.00
2013,03,08,04,38,0.00
2013,03,08,04,39,0.00
2013,03,08,04,40,0.00
2013,03,08,04,41,0.00
2013,03,08,04,42,0.00
2013,03,08,04,43,0.00
2013,03,08,04,44,0.00
2013,03,08,04,45,0.00
2013,03,08,04,46,0.00
2013,03,08,04,47,0.00
2013,03,08,04,48,0.00
2013,03,08,04,49,0.00
2013,03,08,04,50,0.00
2013,03,08,04,51,0.00
2013,03,08,04,52,0.00
2013,03,08,04,53,0.00
2013,03,08,04,54,0.00
2013,03,08,04,55,0.00
2013,03,08,04,56,0.00
2013,03,08,04,57,0.00
2013,03,08,04,58,0.00
2013,03,08,04,59,0.00
2013,03,08,05,00,0.00
2013,03,08,05,01,0.00
2013,03,08,05,02,0.00
2013,03,08,05,03,0.00
2013,03,08,05,04,0.00
2013,03,08,05,05,0.00
2013,03,08,05,06,0.00
2013,03,08,05,07,0.00
2013,03,08,05,08,0.00
2013,03,08,05,09,0.00
2013,03,08,05,10,0.00
2013,03,08,05,11,0.00
2013,03,08,05,12,0.00
2013,03,08,05,13,0.00
2013,03,08,05,14,0.00
2013,03,08,05,15,0.00
2013,03,08,05,16,0.00
2013,03,08,05,17,0.00
2013,03,08,05,18,0.00
2013,03,08,05,19,0.00
2013,03,08,05,20,0.00
2013,03,08,05,21,0.00
2013,03,08,05,22,0.00
2013,03,08,05,23,0.00
2013,03,08,05,24,0.00
2013,03,08,05,25,0.00
2013,03,08,05,26,0.00
2013,03,08,05,27,0.00
2013,03,08,05,28,0.00
2013,03,08,05,29,0.00
2013,03,08,05,30,0.00
2013,03,08,05,31,0.00
2013,03,08,05,32,0.00
2013,03,08,05,33,0.00
2013,03,08,05,34,0.00
2013,03,08,05,35,0.00
2013,03,08,05,36,0.00
2013,03,08,05,37,0.00
2013,03,08,05,38,0.00
2013,03,08,05,39,0.00
2013,03,08,05,40,0.00
2013,03,08,05,41,0.00
2013,03,08,05,42,0.00
2013,03,08,05,43,0.00
2013,03,08,05,44,0.00
2013,03,08,05,45,0.00
2013,03,08,05,46,0.00
2013,03,08,05,47,0.00
2013,03,08,05,48,0.00
2013,03,08,05,49,0.00
2013,03,08,05,50,0.00
2013,03,08,05,51,0.00
2013,03,08,05,52,0.00
2013,03,08,05,53,0.00
2013,03,08,05,54,0.00
2013,03,08,05,55,0.00
2013,03,08,05,56,0.00
2013,03,08,05,57,0.00
2013,03,08,05,58,0.00
2013,03,08,05,59,0.00
2013,03,08,06,00,0.00
2013,03,08,06,01,0.00
2013,03,08,06,02,0.00
2013,03,08,06,03,0.00
2013,03,08,06,04,0.00
2013,03,08,06,05,0.00
2013,03,08,06,06,0.00
2013,03,08,06,07,0.00
2013,03,08,06,08,0.00
2013,03,08,06,09,0.00
2013,03,08,06,10,0.00
2013,03,08,06,11,0.00
2013,03,08,06,12,0.00
2013,03,08,06,13,0.00
2013,03,08,06,14,0.00
2013,03,08,06,15,0.00
2013,03,08,06,16,0.00
2013,03,08,06,17,0.00
2013,03,08,06,18,0.00
2013,03,08,06,19,0.00
2013,03,08,06,20,0.00
2013,03,08,06,21,0.00
2013,03,08,06,22,0.00
2013,03,08,06,23,0.00
2013,03,08,06,24,0.00
2013,03,08,06,25,0.00
2013,03,08,06,26,0.00
2013,03,08,06,27,0.00
2013,03,08,06,28,0.00
2013,03,08,06,29,0.00
2013,03,08,06,30,0.00
2013,03,08,06,31,0.00
2013,03,08,06,32,0.00
2013,03,08,06,33,0.00
2013,03,08,06,34,0.00
2013,03,08,06,35,0.00
2013,03,08,06,36,0.00
2013,03,08,06,37,0.00
2013,03,08,06,38,0.00
2013,03,08,06,39,0.00
2013,03,08,06,40,0.00
2013,03,08,06,41,0.00
2013,03,08,06,42,0.00
2013,03,08,06,43,0.00
2013,03,08,06,44,0.00
2013,03,08,06,45,0.00
2013,03,08,06,46,0.00
2013,03,08,06,47,0.00
2013,03,08,06,48,0.00
2013,03,08,06,49,0.00
2013,03,08,06,50,0.00
2013,03,08,06,51,0.00
2013,03,08,06,52,0.00
2013,03,08,06,53,0.00
2013,03,08,06,54,0.00
2013,03,08,06,55,0.00
2013,03,08,06,56,1.90
2013,03,08,06,57,5.00
2013,03,08,06,58,5.00
2013,03,08,06,59,5.00
2013,03,08,07,00,5.00
2013,03,08,07,01,5.10
2013,03,08,07,02,7.00
2013,03,08,07,03,7.00
2013,03,08,07,04,7.00
2013,03,08,07,05,7.00
2013,03,08,07,06,8.10
2013,03,08,07,07,9.00
2013,03,08,07,08,9.00
2013,03,08,07,09,9.00
2013,03,08,07,10,10.90
2013,03,08,07,11,11.00
2013,03,08,07,12,11.20
2013,03,08,07,13,12.00
2013,03,08,07,14,12.00
2013,03,08,07,15,13.20
2013,03,08,07,16,14.00
2013,03,08,07,17,15.60
2013,03,08,07,18,16.10
2013,03,08,07,19,18.00
2013,03,08,07,20,18.20
2013,03,08,07,21,19.00
2013,03,08,07,22,19.00
2013,03,08,07,23,19.00
2013,03,08,07,24,20.20
2013,03,08,07,25,21.00
2013,03,08,07,26,21.00
2013,03,08,07,27,22.90
2013,03,08,07,28,23.00
2013,03,08,07,29,23.00
2013,03,08,07,30,23.00
2013,03,08,07,31,23.90
2013,03,08,07,32,25.00
2013,03,08,07,33,25.70
2013,03,08,07,34,27.50
2013,03,08,07,35,29.70
2013,03,08,07,36,30.20
2013,03,08,07,37,32.20
2013,03,08,07,38,33.00
2013,03,08,07,39,33.00
2013,03,08,07,40,33.00
2013,03,08,07,41,33.00
2013,03,08,07,42,33.00
2013,03,08,07,43,34.60
2013,03,08,07,44,35.00
2013,03,08,07,45,37.00
2013,03,08,07,46,37.50
2013,03,08,07,47,39.00
2013,03,08,07,48,39.00
2013,03,08,07,49,39.60
2013,03,08,07,50,40.00
2013,03,08,07,51,40.00
2013,03,08,07,52,41.70
2013,03,08,07,53,43.90
2013,03,08,07,54,44.50
2013,03,08,07,55,48.10
2013,03,08,07,56,51.80
2013,03,08,07,57,53.50
2013,03,08,07,58,54.00
2013,03,08,07,59,54.00
2013,03,08,08,00,55.60
2013,03,08,08,01,56.00
2013,03,08,08,02,60.20
2013,03,08,08,03,62.20
2013,03,08,08,04,63.70
2013,03,08,08,05,65.00
2013,03,08,08,06,65.00
2013,03,08,08,07,63.70
2013,03,08,08,08,63.00
2013,03,08,08,09,63.00
2013,03,08,08,10,64.90
2013,03,08,08,11,65.30
2013,03,08,08,12,67.50
2013,03,08,08,13,69.00
2013,03,08,08,14,69.00
2013,03,08,08,15,69.00
2013,03,08,08,16,69.00
2013,03,08,08,17,69.80
2013,03,08,08,18,70.00
2013,03,08,08,19,72.00
2013,03,08,08,20,72.00
2013,03,08,08,21,72.00
2013,03,08,08,22,72.00
2013,03,08,08,23,72.00
2013,03,08,08,24,73.20
2013,03,08,08,25,75.50
2013,03,08,08,26,76.80
2013,03,08,08,27,79.00
2013,03,08,08,28,81.40
2013,03,08,08,29,84.50
2013,03,08,08,30,87.30
2013,03,08,08,31,90.50
2013,03,08,08,32,93.20
2013,03,08,08,33,96.30
2013,03,08,08,34,99.30
2013,03,08,08,35,101.70
2013,03,08,08,36,105.20
2013,03,08,08,37,107.80
2013,03,08,08,38,111.60
2013,03,08,08,39,113.40
2013,03,08,08,40,115.90
2013,03,08,08,41,119.10
2013,03,08,08,42,120.70
2013,03,08,08,43,124.20
2013,03,08,08,44,125.00
2013,03,08,08,45,127.10
2013,03,08,08,46,128.40
2013,03,08,08,47,130.60
2013,03,08,08,48,132.00
2013,03,08,08,49,133.00
2013,03,08,08,50,135.80
2013,03,08,08,51,138.50
2013,03,08,08,52,140.70
2013,03,08,08,53,141.00
2013,03,08,08,54,142.00
2013,03,08,08,55,142.60
2013,03,08,08,56,144.00
2013,03,08,08,57,145.80
2013,03,08,08,58,148.60
2013,03,08,08,59,150.30
2013,03,08,09,00,152.50
2013,03,08,09,01,153.00
2013,03,08,09,02,154.70
2013,03,08,09,03,147.20
2013,03,08,09,04,134.90
2013,03,08,09,05,142.80
2013,03,08,09,06,139.00
2013,03,08,09,07,134.00
2013,03,08,09,08,134.70
2013,03,08,09,09,146.90
2013,03,08,09,10,150.90
2013,03,08,09,11,150.60
2013,03,08,09,12,146.90
2013,03,08,09,13,143.30
2013,03,08,09,14,141.50
2013,03,08,09,15,141.00
2013,03,08,09,16,139.70
2013,03,08,09,17,139.00
2013,03,08,09,18,140.70
2013,03,08,09,19,142.10
2013,03,08,09,20,144.40
2013,03,08,09,21,146.50
2013,03,08,09,22,149.10
2013,03,08,09,23,152.00
2013,03,08,09,24,154.20
2013,03,08,09,25,157.00
2013,03,08,09,26,159.60
2013,03,08,09,27,161.80
2013,03,08,09,28,165.60
2013,03,08,09,29,172.60
2013,03,08,09,30,180.70
2013,03,08,09,31,188.70
2013,03,08,09,32,194.80
2013,03,08,09,33,200.00
2013,03,08,09,34,202.00
2013,03,08,09,35,203.70
2013,03,08,09,36,204.10
2013,03,08,09,37,206.70
2013,03,08,09,38,213.20
2013,03,08,09,39,223.50
2013,03,08,09,40,234.10
2013,03,08,09,41,245.30
2013,03,08,09,42,254.90
2013,03,08,09,43,259.30
2013,03,08,09,44,263.40
2013,03,08,09,45,267.20
2013,03,08,09,46,272.40
2013,03,08,09,47,275.30
2013,03,08,09,48,278.00
2013,03,08,09,49,277.00
2013,03,08,09,50,273.60
2013,03,08,09,51,270.00
2013,03,08,09,52,267.40
2013,03,08,09,53,269.00
2013,03,08,09,54,274.80
2013,03,08,09,55,275.50
2013,03,08,09,56,262.70
2013,03,08,09,57,256.60
2013,03,08,09,58,252.90
2013,03,08,09,59,250.40
2013,03,08,10,00,250.00
2013,03,08,10,01,250.90
2013,03,08,10,02,257.00
2013,03,08,10,03,260.80
2013,03,08,10,04,266.80
2013,03,08,10,05,274.30
2013,03,08,10,06,280.40
2013,03,08,10,07,283.00
2013,03,08,10,08,285.90
2013,03,08,10,09,296.60
2013,03,08,10,10,307.80
2013,03,08,10,11,323.00
2013,03,08,10,12,327.10
2013,03,08,10,13,331.10
2013,03,08,10,14,373.80
2013,03,08,10,15,387.00
2013,03,08,10,16,374.90
2013,03,08,10,17,351.60
2013,03,08,10,18,341.40
2013,03,08,10,19,338.10
2013,03,08,10,20,333.40
2013,03,08,10,21,329.70
2013,03,08,10,22,332.50
2013,03,08,10,23,335.70
2013,03,08,10,24,330.30
2013,03,08,10,25,329.70
2013,03,08,10,26,334.80
2013,03,08,10,27,342.30
2013,03,08,10,28,329.60
2013,03,08,10,29,319.40
2013,03,08,10,30,316.00
2013,03,08,10,31,319.40
2013,03,08,10,32,339.00
2013,03,08,10,33,358.60
2013,03,08,10,34,382.60
2013,03,08,10,35,458.00
2013,03,08,10,36,473.20
2013,03,08,10,37,455.60
2013,03,08,10,38,458.00
2013,03,08,10,39,464.30
2013,03,08,10,40,499.40
2013,03,08,10,41,523.00
2013,03,08,10,42,522.00
2013,03,08,10,43,577.00
2013,03,08,10,44,673.00
2013,03,08,10,45,686.00
2013,03,08,10,46,686.00
2013,03,08,10,47,623.60
2013,03,08,10,48,472.40
2013,03,08,10,49,473.90
2013,03,08,10,50,493.90
2013,03,08,10,51,526.30
2013,03,08,10,52,515.10
2013,03,08,10,53,461.90
2013,03,08,10,54,423.40
2013,03,08,10,55,403.20
2013,03,08,10,56,382.80
2013,03,08,10,57,369.60
2013,03,08,10,58,364.00
2013,03,08,10,59,366.00
2013,03,08,11,00,371.40
2013,03,08,11,01,375.60
2013,03,08,11,02,374.40
2013,03,08,11,03,380.80
2013,03,08,11,04,388.20
2013,03,08,11,05,423.30
2013,03,08,11,06,499.80
2013,03,08,11,07,526.00
2013,03,08,11,08,526.00
2013,03,08,11,09,526.00
2013,03,08,11,10,526.00
2013,03,08,11,11,556.50
2013,03,08,11,12,502.70
2013,03,08,11,13,512.90
2013,03,08,11,14,515.60
2013,03,08,11,15,463.00
2013,03,08,11,16,515.20
2013,03,08,11,17,537.30
2013,03,08,11,18,533.00
2013,03,08,11,19,533.00
2013,03,08,11,20,497.00
2013,03,08,11,21,497.00
2013,03,08,11,22,550.20
2013,03,08,11,23,649.00
2013,03,08,11,24,649.00
2013,03,08,11,25,612.10
2013,03,08,11,26,552.10
2013,03,08,11,27,553.40
2013,03,08,11,28,558.80
2013,03,08,11,29,644.00
2013,03,08,11,30,668.00
2013,03,08,11,31,605.70
2013,03,08,11,32,490.00
2013,03,08,11,33,490.00
2013,03,08,11,34,796.80
2013,03,08,11,35,940.00
2013,03,08,11,36,940.00
2013,03,08,11,37,497.00
2013,03,08,11,38,467.50
2013,03,08,11,39,373.00
2013,03,08,11,40,447.60
2013,03,08,11,41,547.00
2013,03,08,11,42,906.50
2013,03,08,11,43,1105.00
2013,03,08,11,44,1107.00
2013,03,08,11,45,1099.80
2013,03,08,11,46,963.00
2013,03,08,11,47,939.20
2013,03,08,11,48,868.00
2013,03,08,11,49,868.00
2013,03,08,11,50,682.30
2013,03,08,11,51,522.80
2013,03,08,11,52,512.00
2013,03,08,11,53,512.00
2013,03,08,11,54,527.30
2013,03,08,11,55,493.60
2013,03,08,11,56,493.30
2013,03,08,11,57,483.60
2013,03,08,11,58,434.50
2013,03,08,11,59,439.00
2013,03,08,12,00,481.20
2013,03,08,12,01,497.00
2013,03,08,12,02,503.90
2013,03,08,12,03,641.70
2013,03,08,12,04,622.50
2013,03,08,12,05,570.30
2013,03,08,12,06,547.90
2013,03,08,12,07,487.90
2013,03,08,12,08,508.90
2013,03,08,12,09,465.50
2013,03,08,12,10,426.70
2013,03,08,12,11,411.00
2013,03,08,12,12,407.10
2013,03,08,12,13,392.80
2013,03,08,12,14,386.70
2013,03,08,12,15,389.60
2013,03,08,12,16,399.00
2013,03,08,12,17,447.70
2013,03,08,12,18,395.90
2013,03,08,12,19,368.60
2013,03,08,12,20,371.30
2013,03,08,12,21,372.40
2013,03,08,12,22,361.70
2013,03,08,12,23,355.90
2013,03,08,12,24,370.00
2013,03,08,12,25,380.00
2013,03,08,12,26,380.00
2013,03,08,12,27,417.10
2013,03,08,12,28,424.00
2013,03,08,12,29,420.90
2013,03,08,12,30,403.00
2013,03,08,12,31,589.40
2013,03,08,12,32,902.30
2013,03,08,12,33,895.60
2013,03,08,12,34,901.60
2013,03,08,12,35,904.00
2013,03,08,12,36,904.00
2013,03,08,12,37,944.00
2013,03,08,12,38,944.00
2013,03,08,12,39,917.40
2013,03,08,12,40,868.00
2013,03,08,12,41,769.50
2013,03,08,12,42,645.90
2013,03,08,12,43,568.10
2013,03,08,12,44,545.00
2013,03,08,12,45,973.40
2013,03,08,12,46,1021.00
2013,03,08,12,47,857.00
2013,03,08,12,48,324.00
2013,03,08,12,49,302.90
2013,03,08,12,50,283.20
2013,03,08,12,51,265.30
2013,03,08,12,52,252.50
2013,03,08,12,53,246.60
2013,03,08,12,54,243.10
2013,03,08,12,55,241.70
2013,03,08,12,56,233.80
2013,03,08,12,57,224.70
2013,03,08,12,58,218.60
2013,03,08,12,59,210.60
2013,03,08,13,00,203.50
2013,03,08,13,01,199.70
2013,03,08,13,02,199.00
2013,03,08,13,03,197.00
2013,03,08,13,04,197.40
2013,03,08,13,05,199.30
2013,03,08,13,06,202.40
2013,03,08,13,07,211.20
2013,03,08,13,08,221.60
2013,03,08,13,09,233.60
2013,03,08,13,10,246.40
2013,03,08,13,11,262.40
2013,03,08,13,12,295.00
2013,03,08,13,13,343.00
2013,03,08,13,14,343.00
2013,03,08,13,15,343.00
2013,03,08,13,16,343.00
2013,03,08,13,17,343.00
2013,03,08,13,18,343.00
2013,03,08,13,19,343.00
2013,03,08,13,20,343.00
2013,03,08,13,21,343.00
2013,03,08,13,22,343.00
2013,03,08,13,23,343.00
2013,03,08,13,24,571.20
2013,03,08,13,25,758.00
2013,03,08,13,26,758.00
2013,03,08,13,27,758.00
2013,03,08,13,28,231.20
2013,03,08,13,29,169.00
2013,03,08,13,30,169.00
2013,03,08,13,31,351.00
2013,03,08,13,32,713.60
2013,03,08,13,33,703.60
2013,03,08,13,34,692.90
2013,03,08,13,35,685.80
2013,03,08,13,36,676.30
2013,03,08,13,37,673.10
2013,03,08,13,38,672.40
2013,03,08,13,39,670.00
2013,03,08,13,40,668.50
2013,03,08,13,41,665.00
2013,03,08,13,42,663.40
2013,03,08,13,43,661.60
2013,03,08,13,44,659.40
2013,03,08,13,45,657.20
2013,03,08,13,46,656.70
2013,03,08,13,47,654.00
2013,03,08,13,48,654.00
2013,03,08,13,49,652.40
2013,03,08,13,50,648.40
2013,03,08,13,51,647.00
2013,03,08,13,52,645.50
2013,03,08,13,53,645.00
2013,03,08,13,54,644.80
2013,03,08,13,55,641.40
2013,03,08,13,56,638.00
2013,03,08,13,57,637.40
2013,03,08,13,58,635.50
2013,03,08,13,59,636.70
2013,03,08,14,00,636.00
2013,03,08,14,01,633.50
2013,03,08,14,02,628.70
2013,03,08,14,03,599.40
2013,03,08,14,04,627.60
2013,03,08,14,05,628.30
2013,03,08,14,06,626.60
2013,03,08,14,07,613.50
2013,03,08,14,08,607.50
2013,03,08,14,09,606.00
2013,03,08,14,10,600.30
2013,03,08,14,11,599.00
2013,03,08,14,12,597.70
2013,03,08,14,13,595.50
2013,03,08,14,14,593.00
2013,03,08,14,15,590.10
2013,03,08,14,16,587.90
2013,03,08,14,17,585.70
2013,03,08,14,18,584.20
2013,03,08,14,19,582.30
2013,03,08,14,20,577.00
2013,03,08,14,21,574.70
2013,03,08,14,22,573.00
2013,03,08,14,23,571.90
2013,03,08,14,24,569.00
2013,03,08,14,25,566.90
2013,03,08,14,26,564.60
2013,03,08,14,27,563.20
2013,03,08,14,28,557.60
2013,03,08,14,29,554.50
2013,03,08,14,30,550.80
2013,03,08,14,31,547.00
2013,03,08,14,32,545.30
2013,03,08,14,33,541.90
2013,03,08,14,34,539.00
2013,03,08,14,35,536.60
2013,03,08,14,36,533.40
2013,03,08,14,37,533.00
2013,03,08,14,38,531.90
2013,03,08,14,39,527.00
2013,03,08,14,40,525.30
2013,03,08,14,41,522.00
2013,03,08,14,42,520.90
2013,03,08,14,43,516.80
2013,03,08,14,44,513.50
2013,03,08,14,45,513.00
2013,03,08,14,46,508.00
2013,03,08,14,47,506.40
2013,03,08,14,48,506.50
2013,03,08,14,49,501.50
2013,03,08,14,50,500.10
2013,03,08,14,51,499.90
2013,03,08,14,52,504.00
2013,03,08,14,53,506.00
2013,03,08,14,54,505.90
2013,03,08,14,55,502.00
2013,03,08,14,56,485.00
2013,03,08,14,57,485.00
2013,03,08,14,58,485.00
2013,03,08,14,59,485.00
2013,03,08,15,00,483.00
2013,03,08,15,01,476.80
2013,03,08,15,02,475.00
2013,03,08,15,03,474.70
2013,03,08,15,04,467.50
2013,03,08,15,05,459.90
2013,03,08,15,06,456.20
2013,03,08,15,07,451.50
2013,03,08,15,08,448.00
2013,03,08,15,09,446.00
2013,03,08,15,10,443.40
2013,03,08,15,11,439.10
2013,03,08,15,12,438.00
2013,03,08,15,13,436.90
2013,03,08,15,14,431.00
2013,03,08,15,15,428.10
2013,03,08,15,16,426.00
2013,03,08,15,17,424.40
2013,03,08,15,18,421.20
2013,03,08,15,19,418.30
2013,03,08,15,20,415.00
2013,03,08,15,21,410.90
2013,03,08,15,22,410.00
2013,03,08,15,23,408.50
2013,03,08,15,24,405.10
2013,03,08,15,25,402.30
2013,03,08,15,26,398.30
2013,03,08,15,27,396.20
2013,03,08,15,28,392.40
2013,03,08,15,29,388.10
2013,03,08,15,30,386.60
2013,03,08,15,31,383.90
2013,03,08,15,32,379.80
2013,03,08,15,33,372.80
2013,03,08,15,34,367.00
2013,03,08,15,35,367.00
2013,03,08,15,36,112.80
2013,03,08,15,37,51.20
2013,03,08,15,38,49.70
2013,03,08,15,39,55.50
2013,03,08,15,40,57.00
2013,03,08,15,41,51.00
2013,03,08,15,42,52.70
2013,03,08,15,43,63.30
2013,03,08,15,44,80.40
2013,03,08,15,45,81.40
2013,03,08,15,46,136.70
2013,03,08,15,47,133.10
2013,03,08,15,48,63.40
2013,03,08,15,49,47.00
2013,03,08,15,50,55.00
2013,03,08,15,51,104.50
2013,03,08,15,52,162.00
2013,03,08,15,53,144.80
2013,03,08,15,54,103.80
2013,03,08,15,55,98.30
2013,03,08,15,56,60.60
2013,03,08,15,57,50.40
2013,03,08,15,58,50.70
2013,03,08,15,59,49.90
2013,03,08,16,00,45.10
2013,03,08,16,01,44.00
2013,03,08,16,02,44.00
2013,03,08,16,03,44.10
2013,03,08,16,04,46.00
2013,03,08,16,05,46.20
2013,03,08,16,06,47.00
2013,03,08,16,07,47.00
2013,03,08,16,08,49.30
2013,03,08,16,09,49.70
2013,03,08,16,10,47.50
2013,03,08,16,11,46.10
2013,03,08,16,12,44.10
2013,03,08,16,13,43.60
2013,03,08,16,14,42.00
2013,03,08,16,15,42.00
2013,03,08,16,16,42.00
2013,03,08,16,17,42.00
2013,03,08,16,18,42.00
2013,03,08,16,19,42.00
2013,03,08,16,20,40.30
2013,03,08,16,21,42.00
2013,03,08,16,22,42.50
2013,03,08,16,23,44.70
2013,03,08,16,24,45.20
2013,03,08,16,25,42.90
2013,03,08,16,26,40.70
2013,03,08,16,27,40.00
2013,03,08,16,28,40.00
2013,03,08,16,29,40.00
2013,03,08,16,30,39.80
2013,03,08,16,31,39.00
2013,03,08,16,32,39.00
2013,03,08,16,33,38.10
2013,03,08,16,34,37.00
2013,03,08,16,35,37.00
2013,03,08,16,36,37.00
2013,03,08,16,37,37.00
2013,03,08,16,38,37.00
2013,03,08,16,39,36.60
2013,03,08,16,40,35.00
2013,03,08,16,41,35.00
2013,03,08,16,42,35.00
2013,03,08,16,43,33.70
2013,03,08,16,44,33.00
2013,03,08,16,45,33.00
2013,03,08,16,46,33.00
2013,03,08,16,47,33.00
2013,03,08,16,48,33.00
2013,03,08,16,49,33.00
2013,03,08,16,50,33.00
2013,03,08,16,51,32.40
2013,03,08,16,52,32.00
2013,03,08,16,53,32.00
2013,03,08,16,54,32.00
2013,03,08,16,55,32.00
2013,03,08,16,56,32.00
2013,03,08,16,57,32.00
2013,03,08,16,58,31.20
2013,03,08,16,59,30.00
2013,03,08,17,00,30.00
2013,03,08,17,01,30.00
2013,03,08,17,02,30.00
2013,03,08,17,03,30.00
2013,03,08,17,04,28.00
2013,03,08,17,05,28.00
2013,03,08,17,06,28.00
2013,03,08,17,07,28.00
2013,03,08,17,08,28.00
2013,03,08,17,09,28.00
2013,03,08,17,10,28.00
2013,03,08,17,11,28.00
2013,03,08,17,12,26.10
2013,03,08,17,13,26.00
2013,03,08,17,14,26.00
2013,03,08,17,15,26.00
2013,03,08,17,16,26.00
2013,03,08,17,17,26.00
2013,03,08,17,18,25.30
2013,03,08,17,19,25.00